MST,Max TemperatureF,Mean TemperatureF,Min TemperatureF,Max Dew PointF,MeanDew PointF,Min DewpointF,Max Humidity, Mean Humidity, Min Humidity, Max Sea Level PressureIn, Mean Sea Level PressureIn, Min Sea Level PressureIn, Max VisibilityMiles, Mean VisibilityMiles, Min VisibilityMiles, Max Wind SpeedMPH, Mean Wind SpeedMPH, Max Gust SpeedMPH,PrecipitationIn, CloudCover, Events, WindDirDegrees
2012-1-1,37,17,-3,10,1,-9,79,51,23,30.93,30.74,30.52,10,10,10,9,3,12,0.00,0,,289
2012-1-2,38,17,-4,12,3,-9,86,59,32,31.00,30.82,30.56,10,10,10,9,3,10,0.00,0,,304
2012-1-3,39,19,-1,14,5,-6,86,61,35,30.77,30.63,30.34,10,9,1,12,2,14,0.00,0,,303
2012-1-4,42,21,-1,15,5,-5,86,57,27,30.87,30.72,30.59,10,10,10,9,2,10,0.00,0,,317
2012-1-5,40,20,0,14,7,-3,88,59,30,30.69,30.48,30.23,10,10,10,9,2,10,0.00,0,,303
2012-1-6,43,22,0,16,7,-4,87,60,33,30.36,30.23,30.06,10,10,10,9,2,13,0.00,0,,262
2012-1-7,44,23,2,21,13,-2,92,66,39,30.19,30.06,29.92,10,10,10,18,5,22,0.00,1,,294
2012-1-8,37,21,5,19,13,2,92,65,38,30.40,30.17,30.01,10,10,10,12,4,16,0.00,3,,305
2012-1-9,40,19,-2,15,5,-6,88,58,27,30.56,30.39,30.22,10,10,10,8,2,10,0.00,0,,297
2012-1-10,42,21,0,17,8,-2,87,62,37,30.43,30.26,30.11,10,10,10,8,2,9,0.00,0,,271
2012-1-11,37,19,0,16,2,-7,87,54,21,30.24,30.10,29.93,10,10,10,28,8,39,0.00,0,,351
2012-1-12,30,11,-9,0,-7,-13,75,47,19,30.43,30.32,30.08,10,10,10,12,5,15,0.00,0,,262
2012-1-13,34,13,-9,5,-6,-15,79,50,21,30.62,30.47,30.20,10,10,10,12,3,13,0.00,0,,261
2012-1-14,37,14,-10,6,-3,-15,82,53,23,30.75,30.57,30.42,10,10,9,9,2,9,0.00,0,,291
2012-1-15,41,17,-8,17,2,-13,79,52,25,30.48,30.25,29.97,10,10,10,16,4,21,0.00,1,,227
2012-1-16,41,31,20,29,22,12,88,68,48,29.98,29.79,29.65,10,10,10,33,17,44,0.00,1,,227
2012-1-17,34,18,2,12,4,-3,88,58,28,30.36,30.19,30.01,10,10,10,17,7,21,0.00,1,,261
2012-1-18,48,31,13,18,10,1,80,51,21,30.25,30.12,29.93,10,10,10,22,8,26,0.00,0,,209
2012-1-19,51,29,7,25,15,3,88,60,32,30.30,30.07,29.89,10,10,10,12,3,16,0.00,0,,217
2012-1-20,52,30,7,24,15,5,91,60,29,30.19,30.00,29.86,10,10,10,15,4,18,0.00,0,,317
2012-1-21,48,27,6,32,21,3,92,62,31,30.14,29.78,29.45,10,8,1,36,12,49,0.06,3,Snow,203
2012-1-22,40,26,11,22,13,5,85,58,30,30.15,29.79,29.40,10,10,10,24,10,30,0.00,1,,354
2012-1-23,37,19,0,15,8,-4,95,65,35,30.24,30.10,29.89,10,10,10,12,2,15,0.00,0,,212
2012-1-24,40,25,10,23,16,7,92,68,44,30.28,30.08,29.88,10,10,10,13,5,17,0.00,4,,357
2012-1-25,47,25,3,17,9,0,92,58,23,30.44,30.30,30.17,10,10,10,15,5,18,0.00,0,,295
2012-1-26,49,28,6,22,12,2,88,56,23,30.40,30.17,29.92,10,10,10,17,5,22,0.00,0,,189
2012-1-27,41,25,9,25,13,3,92,59,25,30.37,30.09,29.86,10,9,2,26,11,32,T,2,Snow,345
2012-1-28,38,20,1,12,2,-4,87,53,19,30.61,30.51,30.37,10,10,10,8,3,9,0.00,0,,271
2012-1-29,44,22,0,16,4,-5,83,51,19,30.66,30.50,30.35,10,10,10,10,3,12,0.00,0,,270
2012-1-30,45,23,1,16,8,-2,86,57,28,30.32,30.18,30.02,10,10,8,10,3,12,0.00,0,,290
2012-1-31,42,22,1,20,9,-1,91,57,22,30.30,30.20,30.06,10,10,10,10,4,13,0.00,4,,15